Find Observer-1A

NORAD ID: 58323 Int'l Des: 2023-174 Owner: NARAST Country: KR operational
LEOCIRCULARRETROGRADESSO

現在のビュー

3D地球を読み込み中...

About Observer-1A

Observer-1A (NORAD 58323) is a satellite launched Nov 11, 2023 by NARAST of KR. It operates in LEO, CIRCULAR, RETROGRADE, SSO orbit with a mass of 24.00 kg.

Observer-1Aについて

説明を読み込み中...

次回通過

Passes for default location (London). Set your location on the main map for personalized predictions.

高度履歴

Loading altitude history...

軌道要素

1 58323U 23174BV 26159.83662039 .00013516 00000-0 35780-3 0 9990
2 58323 97.3937 243.5409 0008354 175.8594 184.2722 15.38461509143924
Epoch: Jun 8, 2026 • Age: 7 hours

現在のステータス

高度 448.5 km
速度 7.65 km/s
衛星直下点 24.99°N, 124.87°E
打ち上げ日 Nov 11, 2023
運用期間 2.5 years
タイプ other

技術仕様

分類 Payload
質量 24.00 kg
乾燥質量 24.00 kg
総質量 24.00 kg
長さ 0.40 m
直径 0.20 m
スパン 0.40 m
形状 Box
製造者 NARAST
バスタイプ Cubesat 16U
フェーズステータス In Orbit
所有者/国 NARAST/KR

Most Searched